Regional Weather Roundup
Issued by NWS

Home | Current Version | Previous Version | Graphics & Text | Print | Product List | Glossary On
Versions: 1 2 3 4 5 6 7 8 9 10 11 12 13 14 15 16 17 18 19 20 21 22 23 24 25 26 27 28 29 30 31 32 33 34 35 36 37 38 39 40 41 42 43 44 45 46 47 48 49 50
000
ASUS43 KLSX 201207
RWRMO

WEATHER SUMMARY FOR MISSOURI
NATIONAL WEATHER SERVICE SPRINGFIELD MO
700 AM CDT MON OCT 20 2014

NOTE: "FAIR" INDICATES FEW OR NO CLOUDS BELOW 12,000 FEET WITH NO
       SIGNIFICANT WEATHER AND/OR OBSTRUCTIONS TO VISIBILITY.
       CURRENT SKY AND/OR WEATHER CONDITIONS ARE NOT AVAILABLE FOR
       CHILLICOTHE AND FARMINGTON.

MOZ001>031-035>038-043-044-053-054-201300-
...NORTHERN AND WESTERN MISSOURI...

CITY           SKY/WX    TMP DP  RH WIND       PRES   REMARKS
KANSAS CTY INT CLEAR     50  49  96 SW8       30.00R
6HR MIN TEMP:  50; 6HR MAX TEMP:  54;

KANSAS C DTWN  CLEAR     52  50  93 CALM      30.00R
6HR MIN TEMP:  52; 6HR MAX TEMP:  59;

LEE`S SUMMIT   CLEAR     52  50  93 SW7       30.01R
6HR MIN TEMP:  51; 6HR MAX TEMP:  55;

ST JOSEPH      FOG       40  40 100 CALM      30.01R VSB 1/2
6HR MIN TEMP:  40; 6HR MAX TEMP:  50;

CHILLICOTHE      N/A     48  46  93 CALM      30.00R
6HR MIN TEMP:  48; 6HR MAX TEMP:  57;

KIRKSVILLE     CLEAR     50  48  93 NW7       29.97R
6HR MIN TEMP:  50; 6HR MAX TEMP:  56;


$$
MOZ066>068-077>081-088>096-101>105-201300-
...SOUTHWEST MISSOURI...

CITY           SKY/WX    TMP DP  RH WIND       PRES   REMARKS
SPRINGFIELD    CLOUDY    56  51  84 CALM      30.04R
6HR MIN TEMP:  53; 6HR MAX TEMP:  56;

JOPLIN         CLOUDY    59  52  77 SW8       30.05R
6HR MIN TEMP:  57; 6HR MAX TEMP:  59; 6HR PCP:  0.01;


$$
MOZ032>034-039>042-045>050-055>058-069>072-201300-
...CENTRAL MISSOURI...

CITY           SKY/WX    TMP DP  RH WIND       PRES   REMARKS
COLUMBIA       CLEAR     51  49  92 W5        29.99R
6HR MIN TEMP:  49; 6HR MAX TEMP:  54;

JEFFERSON CITY CLEAR     47  46  97 CALM      30.00R
6HR MIN TEMP:  47; 6HR MAX TEMP:  55;

ROLLA          MOCLDY    50  46  86 SW8       29.98F
6HR MIN TEMP:  49; 6HR MAX TEMP:  52;

SEDALIA        CLEAR     54  51  90 SW7       30.00S
6HR MIN TEMP:  54; 6HR MAX TEMP:  56;

WHITEMAN AFB   CLEAR     53  51  92 W5        30.00R
OSAGE BEACH    CLEAR     55  48  76 SW5       30.01R

$$
MOZ051-052-059>065-201300-
...EAST CENTRAL MISSOURI...

CITY           SKY/WX    TMP DP  RH WIND       PRES   REMARKS
ST LOUIS INTL  PTCLDY    55  48  77 W7        29.97R
6HR MIN TEMP:  54; 6HR MAX TEMP:  58;

SPIRIT OF STL  CLEAR     54  48  80 W7        29.96S
6HR MIN TEMP:  54; 6HR MAX TEMP:  57;

ST CHARLES     MOCLDY    49  46  90 SW6       29.96R
6HR MIN TEMP:  48; 6HR MAX TEMP:  56;


$$
MOZ072>076-082>087-097>100-106>115-201300-
...SOUTH CENTRAL AND SOUTHEAST MISSOURI...

CITY           SKY/WX    TMP DP  RH WIND       PRES   REMARKS
CAPE GIRARDEAU MOCLDY    50  47  89 CALM      30.03F
6HR MIN TEMP:  46; 6HR MAX TEMP:  51;

FARMINGTON     PTCLDY    52  46  82 S6        30.02S
6HR MIN TEMP:  50; 6HR MAX TEMP:  54;

POPLAR BLUFF   CLOUDY    51  47  86 S5        30.04S
6HR MIN TEMP:  48; 6HR MAX TEMP:  51;

WEST PLAINS    CLOUDY    53  48  83 W7        30.05S
6HR MIN TEMP:  51; 6HR MAX TEMP:  54; 6HR PCP: TRACE;


$$


USA.gov is the U.S. government's official web portal to all federal, state and local government web resources and services.